Big Bear City, CA

5:13 PM PDT on June 22, 2017 (GMT -0700)
Big Bear City

Weather History for KL35 - November, 2013

Change the Weather History Date:

Thursday, November 21, 2013

  Actual Average (KBUO) Record (KBUO)
Temperature  
Mean Temperature 36 °F -  
Max Temperature 41 °F 65 °F 77 °F (1998)
Min Temperature 32 °F 44 °F 46 °F (1997)
Degree Days  
Heating Degree Days 28    
Moisture  
Dew Point 33 °F    
Average Humidity 89    
Maximum Humidity 100    
Minimum Humidity 70    
Precipitation  
Precipitation 0.05 in - - ()
Sea Level Pressure  
Sea Level Pressure 29.92 in    
Wind  
Wind Speed 6 mph (WSW)    
Max Wind Speed 13 mph    
Max Gust Speed 20 mph    
Visibility 8 miles    
Events Fog , Rain , Snow    
Averages and records for this station are not official NWS values.
T = Trace of Precipitation, MM = Missing Value Source: NWS Daily Summary

Daily Weather History Graph

Daily Weather History Graph

Search for Another Location

Airport or City:

Trip Planner

Search our weather history database for the weather conditions in past years. The results will help you decide how hot, cold, wet, or windy it might be!

Date:

Astronomy

Nov. 21, 2013 Rise Set
Actual Time 6:26 AM PST 4:40 PM PST
Civil Twilight 5:59 AM PST 5:07 PM PST
Nautical Twilight 5:28 AM PST 5:37 PM PST
Astronomical Twilight 4:58 AM PST 6:07 PM PST
Moon 8:19 PM PST (11/21) 9:36 AM PST (11/21)
Length of Visible Light 11h 07m
Length of Day
10h 13m
Waning Gibbous, 84% of the Moon is Illuminated
Nov 21
Waning Gibbous
Nov 25
Last Quarter
Dec 2
New
Dec 9
First Quarter
Dec 17
Full

Hourly Weather History & Observations

Time (PST) Temp. Windchill Dew Point Humidity Pressure Visibility Wind Dir Wind Speed Gust Speed Precip Events Conditions
12:15 AM 39.2 °F 34.2 °F 35.6 °F 87% 29.94 in 10.0 mi WSW 6.9 mph - N/A   Overcast
12:35 AM 39.2 °F 35.0 °F 35.6 °F 87% 29.94 in 7.0 mi WSW 5.8 mph - N/A   Overcast
12:55 AM 39.2 °F 33.0 °F 35.6 °F 87% 29.94 in 10.0 mi West 9.2 mph - N/A   Overcast
1:15 AM 39.2 °F 33.6 °F 35.6 °F 87% 29.94 in 10.0 mi WSW 8.1 mph - N/A   Overcast
1:35 AM 39.2 °F 35.9 °F 35.6 °F 87% 29.93 in 10.0 mi WSW 4.6 mph - N/A   Overcast
1:55 AM 39.2 °F 35.0 °F 35.6 °F 87% 29.93 in 4.0 mi WSW 5.8 mph - N/A Rain Rain
2:15 AM 37.4 °F 32.1 °F 35.6 °F 93% 29.93 in 7.0 mi WSW 6.9 mph - N/A Rain Rain
2:35 AM 37.4 °F 31.4 °F 33.8 °F 87% 29.92 in 10.0 mi WSW 8.1 mph - N/A   Mostly Cloudy
2:55 AM 37.4 °F 32.1 °F 35.6 °F 93% 29.92 in 5.0 mi West 6.9 mph - N/A   Light Drizzle
3:15 AM 37.4 °F 33.8 °F 35.6 °F 93% 29.92 in 10.0 mi WSW 4.6 mph - N/A   Scattered Clouds
3:35 AM 37.4 °F - 35.6 °F 93% 29.92 in 7.0 mi Calm Calm - N/A   Scattered Clouds
3:55 AM 37.4 °F 33.8 °F 35.6 °F 93% 29.91 in 4.0 mi West 4.6 mph - N/A Rain Rain
4:15 AM 37.4 °F 32.8 °F 35.6 °F 93% 29.90 in 7.0 mi WSW 5.8 mph - N/A Rain Light Rain
4:35 AM 37.4 °F 32.1 °F 35.6 °F 93% 29.91 in 7.0 mi SW 6.9 mph - N/A Rain Light Rain
4:55 AM 37.4 °F 33.8 °F 35.6 °F 93% 29.91 in 7.0 mi WSW 4.6 mph - N/A Rain Light Rain
5:15 AM 37.4 °F 32.8 °F 35.6 °F 93% 29.92 in 10.0 mi SW 5.8 mph 19.6 mph N/A   Mostly Cloudy
5:35 AM 37.4 °F 34.9 °F 33.8 °F 87% 29.92 in 10.0 mi SSW 3.5 mph - N/A   Mostly Cloudy
5:55 AM 37.4 °F 32.1 °F 33.8 °F 87% 29.91 in 10.0 mi WSW 6.9 mph - N/A Rain Light Rain
6:15 AM 37.4 °F 34.9 °F 33.8 °F 87% 29.92 in 10.0 mi WSW 3.5 mph - N/A   Scattered Clouds
6:35 AM 37.4 °F 32.8 °F 33.8 °F 87% 29.93 in 10.0 mi WSW 5.8 mph - N/A   Light Drizzle
6:55 AM 37.4 °F 33.8 °F 33.8 °F 87% 29.94 in 10.0 mi WSW 4.6 mph - N/A   Scattered Clouds
7:15 AM 37.4 °F 32.8 °F 33.8 °F 87% 29.93 in 10.0 mi West 5.8 mph - N/A   Clear
7:35 AM 37.4 °F 32.1 °F 33.8 °F 87% 29.93 in 10.0 mi West 6.9 mph - N/A   Scattered Clouds
7:55 AM 37.4 °F - 33.8 °F 87% 29.94 in 10.0 mi Calm Calm - N/A   Scattered Clouds
8:15 AM 37.4 °F 32.1 °F 33.8 °F 87% 29.94 in 10.0 mi West 6.9 mph - N/A   Scattered Clouds
8:35 AM 39.2 °F - 33.8 °F 81% 29.94 in 10.0 mi Calm Calm - N/A   Scattered Clouds
8:55 AM 39.2 °F - 33.8 °F 81% 29.94 in 10.0 mi Calm Calm - N/A   Scattered Clouds
9:15 AM 39.2 °F 34.2 °F 32.0 °F 75% 29.94 in 10.0 mi WSW 6.9 mph - N/A   Scattered Clouds
9:35 AM 39.2 °F 37.0 °F 33.8 °F 81% 29.93 in 10.0 mi WSW 3.5 mph - N/A   Mostly Cloudy
9:55 AM 41.0 °F 35.2 °F 33.8 °F 76% 29.94 in 10.0 mi SW 9.2 mph - N/A   Mostly Cloudy
10:15 AM 41.0 °F 36.4 °F 32.0 °F 70% 29.94 in 10.0 mi SW 6.9 mph - N/A   Scattered Clouds
10:35 AM 37.4 °F 33.8 °F 33.8 °F 87% 29.93 in 5.0 mi SSW 4.6 mph - N/A Rain Light Rain
10:55 AM 37.4 °F 29.3 °F 33.8 °F 87% 29.93 in 10.0 mi WSW 12.7 mph 19.6 mph N/A   Overcast
11:15 AM 37.4 °F 30.8 °F 33.8 °F 87% 29.91 in 7.0 mi WSW 9.2 mph 16.1 mph N/A   Light Drizzle
11:35 AM 37.4 °F 32.8 °F 32.0 °F 81% 29.91 in 10.0 mi SW 5.8 mph 18.4 mph N/A   Mostly Cloudy
11:55 AM 41.0 °F 34.3 °F 33.8 °F 76% 29.90 in 10.0 mi West 11.5 mph 17.3 mph N/A   Scattered Clouds
12:15 PM 39.2 °F 33.6 °F 33.8 °F 81% 29.90 in 10.0 mi SW 8.1 mph 16.1 mph N/A   Mostly Cloudy
12:35 PM 37.4 °F 31.4 °F 33.8 °F 87% 29.90 in 10.0 mi SW 8.1 mph 18.4 mph N/A   Light Drizzle
12:55 PM 37.4 °F 33.8 °F 33.8 °F 87% 29.90 in 5.0 mi WSW 4.6 mph - N/A   Overcast
1:15 PM 41.0 °F 36.4 °F 35.6 °F 81% 29.89 in 10.0 mi West 6.9 mph - N/A   Mostly Cloudy
1:35 PM 41.0 °F 38.0 °F 33.8 °F 76% 29.89 in 10.0 mi WSW 4.6 mph - N/A   Mostly Cloudy
1:55 PM 41.0 °F 35.8 °F 33.8 °F 76% 29.89 in 10.0 mi West 8.1 mph - N/A   Overcast
2:15 PM 39.2 °F 35.0 °F 33.8 °F 81% 29.88 in 10.0 mi West 5.8 mph - N/A   Overcast
2:35 PM 37.4 °F 31.4 °F 33.8 °F 87% 29.89 in 10.0 mi WSW 8.1 mph - N/A   Overcast
2:55 PM 35.6 °F 28.6 °F 33.8 °F 93% 29.90 in 2.5 mi West 9.2 mph - N/A Rain Light Rain
3:15 PM 33.8 °F 25.8 °F 32.0 °F 93% 29.90 in 3.0 mi West 10.4 mph - 0.01 in Rain Light Rain
3:35 PM 32.0 °F 23.6 °F 32.0 °F 100% 29.90 in 2.0 mi West 10.4 mph - 0.05 in Snow Light Snow
3:55 PM 32.0 °F 25.6 °F 32.0 °F 100% 29.89 in 2.0 mi West 6.9 mph - 0.05 in Snow Light Snow
4:15 PM 33.8 °F 28.6 °F 32.0 °F 93% 29.90 in 5.0 mi SW 5.8 mph - N/A Rain Light Rain
4:35 PM 33.8 °F 29.6 °F 32.0 °F 93% 29.90 in 10.0 mi WSW 4.6 mph - N/A   Overcast
4:55 PM 33.8 °F 29.6 °F 32.0 °F 93% 29.90 in 10.0 mi West 4.6 mph - N/A   Overcast
5:15 PM 33.8 °F - 32.0 °F 93% 29.91 in 10.0 mi Calm Calm - N/A   Overcast
5:35 PM 33.8 °F 30.8 °F 32.0 °F 93% 29.91 in 10.0 mi West 3.5 mph - N/A   Overcast
5:55 PM 33.8 °F - 32.0 °F 93% 29.91 in 10.0 mi Calm Calm - N/A   Overcast
6:15 PM 33.8 °F - 32.0 °F 93% 29.92 in 10.0 mi Calm Calm - N/A   Overcast
6:35 PM 33.8 °F - 32.0 °F 93% 29.92 in 10.0 mi Calm Calm - N/A   Overcast
6:55 PM 33.8 °F - 32.0 °F 93% 29.91 in 10.0 mi Calm Calm - N/A   Overcast
7:15 PM 33.8 °F - 32.0 °F 93% 29.92 in 10.0 mi Calm Calm - N/A   Overcast
7:35 PM 33.8 °F - 32.0 °F 93% 29.92 in 10.0 mi Calm Calm - N/A   Overcast
7:55 PM 33.8 °F - 32.0 °F 93% 29.92 in 10.0 mi Calm Calm - N/A   Overcast
8:15 PM 33.8 °F - 32.0 °F 93% 29.92 in 10.0 mi Calm Calm - N/A   Overcast
8:35 PM 33.8 °F - 32.0 °F 93% 29.93 in 10.0 mi Calm Calm - N/A   Overcast
8:55 PM 33.8 °F 28.6 °F 32.0 °F 93% 29.93 in 2.5 mi ENE 5.8 mph - N/A   Overcast
9:15 PM 33.8 °F 29.6 °F 32.0 °F 93% 29.93 in 2.5 mi NE 4.6 mph - N/A   Light Drizzle
9:35 PM 33.8 °F 29.6 °F 32.0 °F 93% 29.92 in 5.0 mi East 4.6 mph - N/A   Overcast
9:55 PM 32.0 °F 27.5 °F 32.0 °F 100% 29.92 in 0.8 mi NNE 4.6 mph - N/A   Overcast
10:15 PM 32.0 °F 26.4 °F 32.0 °F 100% 29.93 in 4.0 mi ENE 5.8 mph - N/A   Overcast
10:35 PM 32.0 °F 27.5 °F 32.0 °F 100% 29.92 in 0.2 mi NE 4.6 mph - N/A Fog Fog
10:55 PM 32.0 °F 28.7 °F 32.0 °F 100% 29.93 in 1.2 mi NE 3.5 mph - N/A   Overcast
11:15 PM 32.0 °F 27.5 °F 32.0 °F 100% 29.92 in 0.2 mi ENE 4.6 mph - N/A Rain Light Rain
11:35 PM 32.0 °F 24.8 °F 32.0 °F 100% 29.92 in 1.2 mi East 8.1 mph - N/A   Overcast
11:55 PM 32.0 °F 26.4 °F 32.0 °F 100% 29.92 in 4.0 mi East 5.8 mph - N/A Snow Light Snow